sat.trackr.live / text

‹ back to catalog

STARLINK-36495

NORAD 67311 · 2026-002G

PAYLOAD ACTIVE UNKNOWN

§ Identity

Operator
Country
US
Launch date
2026-01-04
Launch site
AFETR
Launch vehicle
Mass (kg)
RCS (m²)

Purposes: comms

External: N2YO · Heavens-Above · Gunter

§ Orbital elements

Epoch: 2026-05-25T00:17:32.338176Z

Period
94.27 min
Inclination
43.0017°
Eccentricity
0.0001025
Mean motion
15.27578952 rev/d
Perigee alt
482.3 km
Apogee alt
483.8 km
Semi-major
6,861.2 km
B*
5.3296e-4
RAAN
254.0504°
Arg perigee
276.9869°
Mean anomaly
83.0866°
Rev number
2,291

§ Raw data

STARLINK-364951 67311U 26002G   26145.01217984  .00014432  00000+0  53296-3 0  99992 67311  43.0017 254.0504 0001025 276.9869  83.0866 15.27578952 22916

JSON: /api/v1/satellites/67311 · /tle

For live sub-satellite position, see the globe view (requires WebGL).

§ Visibility from observer

Set your observer location to see the next 7 days of passes ≥ 10°. The values pass through the URL so the page stays shareable.

No JS? Fill the form by hand. The geolocation button needs JavaScript.